Change the Weather History Date:

Monday, May 6, 2013

  Actual Average (KFLP) Record (KFLP)
Temperature  
Mean Temperature 63 °F -  
Max Temperature 71 °F 74 °F 89 °F (2007)
Min Temperature 55 °F 53 °F 46 °F (1997)
Degree Days  
Heating Degree Days 2    
Growing Degree Days 13 (Base 50)    
Moisture  
Dew Point 52 °F    
Average Humidity 72    
Maximum Humidity 88    
Minimum Humidity 50    
Precipitation  
Precipitation 0.00 in - - ()
Sea Level Pressure  
Sea Level Pressure 29.98 in    
Wind  
Wind Speed 6 mph (WNW)    
Max Wind Speed 13 mph    
Max Gust Speed 22 mph    
Visibility 10 miles    
Events      
Averages and records for this station are not official NWS values.
T = Trace of Precipitation, MM = Missing Value Source: NWS Daily Summary

Daily Weather History Graph

Daily Weather History Graph

Search for Another Location

Airport or City:

Trip Planner

Search our weather history database for the weather conditions in past years. The results will help you decide how hot, cold, wet, or windy it might be!

Date:

Astronomy

May. 06, 2013 Rise Set
Actual Time 6:12 AM CDT 8:00 PM CDT
Civil Twilight 5:44 AM CDT 8:28 PM CDT
Nautical Twilight 5:11 AM CDT 9:02 PM CDT
Astronomical Twilight 4:35 AM CDT 9:37 PM CDT
Moon 4:08 AM CDT (5/6) 5:06 PM CDT (5/6)
Length of Visible Light 14h 43m
Length of Day
13h 48m
Waning Crescent, 11% of the Moon is Illuminated
May 6
Waning Crescent
May 9
New
May 17
First Quarter
May 24
Full
May 31
Last Quarter

Hourly Weather History & Observations

Time (CDT) Temp. Dew Point Humidity Pressure Visibility Wind Dir Wind Speed Gust Speed Precip Events Conditions
12:15 AM 57.2 °F 48.2 °F 72% 29.97 in 10.0 mi Calm Calm - N/A   Mostly Cloudy
12:35 AM 57.2 °F 48.2 °F 72% 29.96 in 10.0 mi WNW 10.4 mph - N/A   Scattered Clouds
12:55 AM 57.2 °F 48.2 °F 72% 29.96 in 10.0 mi WNW 12.7 mph 20.7 mph N/A   Scattered Clouds
1:15 AM 57.2 °F 50.0 °F 77% 29.96 in 10.0 mi WNW 8.1 mph - N/A   Overcast
1:35 AM 57.2 °F 50.0 °F 77% 29.95 in 10.0 mi WNW 6.9 mph - N/A   Mostly Cloudy
1:55 AM 57.2 °F 50.0 °F 77% 29.95 in 10.0 mi West 6.9 mph - N/A   Partly Cloudy
2:15 AM 57.2 °F 50.0 °F 77% 29.94 in 10.0 mi WNW 4.6 mph - N/A   Scattered Clouds
2:35 AM 55.4 °F 48.2 °F 77% 29.94 in 10.0 mi WNW 3.5 mph - N/A   Mostly Cloudy
2:55 AM 55.4 °F 48.2 °F 77% 29.94 in 10.0 mi WNW 8.1 mph - N/A   Mostly Cloudy
3:15 AM 55.4 °F 50.0 °F 82% 29.94 in 10.0 mi WNW 6.9 mph - N/A   Mostly Cloudy
3:35 AM 55.4 °F 50.0 °F 82% 29.95 in 10.0 mi WNW 5.8 mph - N/A   Scattered Clouds
3:55 AM 55.4 °F 50.0 °F 82% 29.95 in 10.0 mi Calm Calm - N/A   Mostly Cloudy
4:15 AM 55.4 °F 50.0 °F 82% 29.95 in 10.0 mi Calm Calm - N/A   Overcast
4:35 AM 55.4 °F 50.0 °F 82% 29.95 in 10.0 mi WNW 6.9 mph - N/A   Overcast
4:55 AM 55.4 °F 50.0 °F 82% 29.95 in 10.0 mi NW 5.8 mph - N/A   Overcast
5:15 AM 55.4 °F 50.0 °F 82% 29.95 in 10.0 mi Calm Calm - N/A   Overcast
5:35 AM 55.4 °F 50.0 °F 82% 29.95 in 10.0 mi Calm Calm - N/A   Overcast
5:55 AM 55.4 °F 50.0 °F 82% 29.96 in 10.0 mi WNW 3.5 mph - N/A   Mostly Cloudy
6:15 AM 55.4 °F 50.0 °F 82% 29.96 in 10.0 mi WNW 3.5 mph - N/A   Scattered Clouds
6:35 AM 55.4 °F 50.0 °F 82% 29.97 in 10.0 mi Calm Calm - N/A   Mostly Cloudy
6:55 AM 55.4 °F 50.0 °F 82% 29.98 in 10.0 mi NW 6.9 mph - N/A   Overcast
7:15 AM 55.4 °F 51.8 °F 88% 29.99 in 10.0 mi NW 8.1 mph - N/A   Overcast
7:35 AM 57.2 °F 51.8 °F 82% 29.99 in 8.0 mi WNW 6.9 mph - N/A   Overcast
7:55 AM 57.2 °F 51.8 °F 82% 29.99 in 8.0 mi WNW 6.9 mph 18.4 mph N/A   Overcast
8:15 AM 57.2 °F 51.8 °F 82% 30.00 in 7.0 mi NW 4.6 mph 17.3 mph N/A   Overcast
8:35 AM 57.2 °F 51.8 °F 82% 30.01 in 7.0 mi WNW 8.1 mph 18.4 mph N/A   Overcast
8:55 AM 57.2 °F 51.8 °F 82% 30.01 in 7.0 mi WNW 9.2 mph 16.1 mph N/A   Overcast
9:15 AM 57.2 °F 51.8 °F 82% 30.01 in 7.0 mi WNW 10.4 mph 19.6 mph N/A   Overcast
9:35 AM 57.2 °F 51.8 °F 82% 30.01 in 7.0 mi NW 9.2 mph 18.4 mph N/A   Mostly Cloudy
9:55 AM 60.8 °F 51.8 °F 72% 30.02 in 9.0 mi WNW 8.1 mph 17.3 mph N/A   Mostly Cloudy
10:15 AM 60.8 °F 51.8 °F 72% 30.02 in 9.0 mi WNW 9.2 mph 21.9 mph N/A   Mostly Cloudy
10:35 AM 62.6 °F 53.6 °F 72% 30.02 in 9.0 mi WNW 12.7 mph 18.4 mph N/A   Mostly Cloudy
10:55 AM 62.6 °F 53.6 °F 72% 30.02 in 9.0 mi WNW 10.4 mph 19.6 mph N/A   Mostly Cloudy
11:15 AM 60.8 °F 51.8 °F 72% 30.02 in 9.0 mi NW 9.2 mph 17.3 mph N/A   Overcast
11:35 AM 62.6 °F 53.6 °F 72% 30.02 in 9.0 mi WNW 6.9 mph 18.4 mph N/A   Overcast
11:55 AM 62.6 °F 53.6 °F 72% 30.01 in 10.0 mi NNW 11.5 mph 19.6 mph N/A   Overcast
12:15 PM 64.4 °F 53.6 °F 68% 30.00 in 10.0 mi WNW 10.4 mph 18.4 mph N/A   Scattered Clouds
12:35 PM 64.4 °F 51.8 °F 64% 30.01 in 10.0 mi NNW 9.2 mph 19.6 mph N/A   Mostly Cloudy
12:55 PM 64.4 °F 51.8 °F 64% 30.00 in 10.0 mi NW 11.5 mph 19.6 mph N/A   Overcast
1:15 PM 66.2 °F 53.6 °F 64% 30.00 in 10.0 mi NNW 6.9 mph - N/A   Mostly Cloudy
1:35 PM 64.4 °F 53.6 °F 68% 30.00 in 10.0 mi WNW 10.4 mph - N/A   Mostly Cloudy
1:55 PM 66.2 °F 53.6 °F 64% 30.00 in 10.0 mi WNW 9.2 mph - N/A   Mostly Cloudy
2:15 PM 66.2 °F 53.6 °F 64% 30.00 in 10.0 mi WNW 8.1 mph - N/A   Mostly Cloudy
2:35 PM 66.2 °F 53.6 °F 64% 29.99 in 10.0 mi West 8.1 mph - N/A   Overcast
2:55 PM 66.2 °F 53.6 °F 64% 29.99 in 10.0 mi NW 6.9 mph - N/A   Overcast
3:15 PM 66.2 °F 53.6 °F 64% 29.99 in 10.0 mi WNW 8.1 mph - N/A   Overcast
3:35 PM 68.0 °F 53.6 °F 60% 29.98 in 8.0 mi Calm Calm - N/A   Overcast
3:55 PM 69.8 °F 53.6 °F 56% 29.97 in 8.0 mi NW 9.2 mph - N/A   Overcast
4:15 PM 69.8 °F 53.6 °F 56% 29.96 in 8.0 mi WNW 6.9 mph - N/A   Overcast
4:35 PM 71.6 °F 53.6 °F 53% 29.95 in 7.0 mi NW 10.4 mph - N/A   Scattered Clouds
4:55 PM 71.6 °F 53.6 °F 53% 29.95 in 8.0 mi WNW 11.5 mph 16.1 mph N/A   Partly Cloudy
5:15 PM 71.6 °F 53.6 °F 53% 29.96 in 8.0 mi NW 11.5 mph - N/A   Partly Cloudy
5:55 PM 71.6 °F 51.8 °F 50% 29.96 in 10.0 mi NW 11.5 mph 16.1 mph N/A   Scattered Clouds
6:15 PM 69.8 °F 51.8 °F 53% 29.96 in 10.0 mi NNW 4.6 mph - N/A   Mostly Cloudy
6:35 PM 69.8 °F 51.8 °F 53% 29.96 in 10.0 mi NNW 4.6 mph - N/A   Overcast
6:55 PM 69.8 °F 53.6 °F 56% 29.96 in 10.0 mi Calm Calm - N/A   Overcast
7:15 PM 68.0 °F 53.6 °F 60% 29.96 in 10.0 mi Calm Calm - N/A   Overcast
7:35 PM 66.2 °F 55.4 °F 68% 29.97 in 10.0 mi Calm Calm - N/A   Mostly Cloudy
7:55 PM 64.4 °F 55.4 °F 73% 29.98 in 10.0 mi Calm Calm - N/A   Scattered Clouds
8:15 PM 62.6 °F 57.2 °F 82% 29.99 in 10.0 mi Calm Calm - N/A   Mostly Cloudy
8:35 PM 62.6 °F 55.4 °F 77% 29.99 in 10.0 mi Calm Calm - N/A   Overcast
8:55 PM 62.6 °F 57.2 °F 82% 30.00 in 10.0 mi Calm Calm - N/A   Overcast
9:15 PM 60.8 °F 57.2 °F 88% 30.01 in 10.0 mi Calm Calm - N/A   Overcast
9:35 PM 60.8 °F 57.2 °F 88% 30.02 in 10.0 mi Calm Calm - N/A   Overcast
9:55 PM 60.8 °F 57.2 °F 88% 30.02 in 10.0 mi Calm Calm - N/A   Overcast
10:15 PM 64.4 °F 53.6 °F 68% 30.03 in 10.0 mi NW 5.8 mph - N/A   Overcast
10:35 PM 64.4 °F 53.6 °F 68% 30.03 in 10.0 mi WNW 6.9 mph - N/A   Overcast
10:55 PM 64.4 °F 53.6 °F 68% 30.03 in 10.0 mi NW 4.6 mph - N/A   Overcast
11:15 PM 64.4 °F 53.6 °F 68% 30.03 in 10.0 mi WNW 6.9 mph - N/A   Overcast
11:35 PM 64.4 °F 53.6 °F 68% 30.03 in 10.0 mi NW 5.8 mph - N/A   Mostly Cloudy
11:55 PM 62.6 °F 53.6 °F 72% 30.03 in 10.0 mi NW 4.6 mph - N/A   Mostly Cloudy